Terminal Aerodrome Forecast
Issued by NWS

Current Version | Previous Version | Text Only | Print | Product List | Glossary On
Versions: 1 2 3 4 5 6 7 8 9 10 11 12 13 14 15 16 17 18 19 20
000
FTUS45 KRIW 232300
TAFJAC
TAF
KJAC 232334Z 2400/2424 20008KT P6SM VCSH SCT060 SCT120
     FM240300 36006KT P6SM FEW060 SCT150
     FM241000 36005KT P6SM VCFG FEW003
     FM241600 18008KT P6SM SKC
      AMD LTD TO CLD VIS AND WIND=

USA.gov is the U.S. government's official web portal to all federal, state and local government web resources and services.